PDT,Max TemperatureF,Mean TemperatureF,Min TemperatureF,Max Dew PointF,MeanDew PointF,Min DewpointF,Max Humidity, Mean Humidity, Min Humidity, Max Sea Level PressureIn, Mean Sea Level PressureIn, Min Sea Level PressureIn, Max VisibilityMiles, Mean VisibilityMiles, Min VisibilityMiles, Max Wind SpeedMPH, Mean Wind SpeedMPH, Max Gust SpeedMPH,PrecipitationIn, CloudCover, Events, WindDirDegrees
2014-4-1,63,52,40,29,26,21,60,41,22,29.77,29.74,29.72,10,10,10,21,10,24,0.00,1,,352
2014-4-2,64,54,44,27,22,15,45,31,16,29.93,29.85,29.77,10,10,10,26,9,31,0.00,0,,291
2014-4-3,60,46,32,36,28,21,72,52,31,29.99,29.93,29.86,10,10,10,25,9,34,T,2,Rain,216
2014-4-4,62,50,38,35,26,18,70,45,19,29.88,29.83,29.79,10,10,10,22,10,29,0.00,4,,247
2014-4-5,62,48,33,44,32,26,80,56,32,29.98,29.95,29.89,10,10,10,23,10,29,T,3,Rain,223
2014-4-6,68,53,37,36,31,24,79,50,20,30.21,30.10,29.97,10,10,10,24,11,29,0.00,0,,271
2014-4-7,72,56,39,39,37,32,79,54,29,30.27,30.18,30.08,10,10,10,21,6,25,0.00,0,,155
2014-4-8,77,60,42,43,37,32,76,49,21,30.08,29.99,29.88,10,10,10,35,10,42,T,1,Rain,299
2014-4-9,65,55,44,34,17,-3,44,26,7,30.10,30.05,29.94,10,10,10,24,12,33,0.00,0,,295
2014-4-10,65,52,39,29,20,13,46,31,15,30.15,30.07,29.99,10,10,10,20,9,26,0.00,0,,238
2014-4-11,71,54,36,31,25,16,70,42,14,29.99,29.93,29.86,10,10,10,30,14,38,0.00,0,,314
2014-4-12,66,55,44,29,22,14,45,30,15,30.14,29.98,29.91,10,10,10,29,18,34,0.00,1,,356
2014-4-13,63,49,35,22,19,16,44,29,14,30.37,30.29,30.17,10,10,10,16,6,19,0.00,0,,357
2014-4-14,65,48,30,26,19,11,69,41,13,30.27,30.09,29.91,10,10,10,22,7,29,0.00,0,,292
2014-4-15,66,58,50,26,20,14,32,23,13,29.99,29.95,29.88,10,10,10,31,19,39,0.00,2,,297
2014-4-16,61,54,46,37,33,24,66,49,32,30.01,29.97,29.91,10,10,10,21,10,26,T,6,Rain,226
2014-4-17,57,49,40,49,45,42,93,75,57,29.91,29.79,29.71,10,10,10,17,7,21,0.09,6,Rain,192
2014-4-18,62,50,38,38,25,15,92,55,17,29.97,29.92,29.75,10,10,10,23,12,29,0.00,0,,268
2014-4-19,66,50,33,33,28,24,75,50,24,30.08,29.91,29.82,10,10,10,29,11,37,0.00,2,,299
2014-4-20,64,49,33,31,27,20,70,45,20,30.25,30.20,30.12,10,10,10,17,8,23,0.00,0,,189
2014-4-21,68,56,44,46,33,29,62,43,24,30.15,29.95,29.73,10,10,10,17,8,21,0.14,2,Rain,8
2014-4-22,61,50,39,47,34,18,93,57,21,29.84,29.74,29.67,10,9,5,22,11,29,0.32,4,Rain,259
2014-4-23,57,48,38,45,37,32,93,67,41,29.87,29.83,29.76,10,10,10,29,12,36,0.07,6,Rain,204
2014-4-24,66,57,48,46,41,30,93,61,28,29.79,29.73,29.68,10,10,6,23,14,29,0.08,4,Rain,206
2014-4-25,57,50,43,40,34,29,76,60,43,29.80,29.76,29.72,10,10,10,20,7,27,0.18,4,Rain,16
2014-4-26,62,49,36,41,29,19,92,56,20,29.72,29.68,29.64,10,10,10,23,9,31,0.00,1,,245
2014-4-27,62,53,44,41,31,22,83,53,22,29.97,29.76,29.64,10,10,7,25,14,35,0.07,2,Rain,236
2014-4-28,63,52,40,29,25,19,57,39,20,30.43,30.26,30.02,10,10,10,16,6,20,0.00,1,,257
2014-4-29,70,53,36,33,28,22,76,46,16,30.62,30.54,30.45,10,10,10,15,7,20,0.00,0,,25
2014-4-30,79,61,42,34,29,22,62,37,12,30.53,30.41,30.25,10,10,10,13,7,18,0.00,0,,4